Location: Newark
(38.0892°N, 27.7378°E)
Time: 13:47:10
(UTC+00:00)

Hubble Space Telescope - Visible Passes

Search period start: 20 January 2021 00:00
Search period end: 30 January 2021 00:00
Orbit: 536 x 539 km, 28.5° (Epoch: 19 January)

Date Brightness Start Highest point End Pass type
(mag) Time Alt. Az. Time Alt. Az. Time Alt. Az.
20 Jan 2.8 16:27:52 10° SW 16:30:47 19° S 16:33:26 11° SE visible
20 Jan 3.7 18:08:16 10° SW 18:08:45 12° SW 18:08:45 12° SW visible
21 Jan 2.8 16:16:49 10° SW 16:19:52 20° S 16:22:55 10° SE visible
21 Jan 3.4 17:57:26 10° SW 17:58:37 15° SW 17:58:37 15° SW visible
22 Jan 2.8 16:05:49 10° SW 16:08:57 21° S 16:12:05 10° SE visible
22 Jan 3.2 17:46:39 10° SW 17:48:30 17° SSW 17:48:30 17° SSW visible
23 Jan 2.8 15:54:51 10° SW 15:58:02 21° S 16:01:12 10° SE visible
23 Jan 3.0 17:35:54 10° SW 17:38:27 17° SSW 17:38:27 17° SSW visible
24 Jan 3.1 17:25:15 10° SW 17:27:40 15° SSW 17:28:27 14° S visible
25 Jan 3.3 17:14:43 10° SW 17:16:43 13° SSW 17:18:32 10° S visible
26 Jan 3.5 17:04:28 10° SW 17:05:45 11° SSW 17:07:02 10° S visible
